Tracking 32932 objects as of 14-Jan-2026
HD Live streaming from Space Station
objects crossing your sky now

COSMOS 1375 DEB

Track COSMOS 1375 DEB now!
10-day predictions


NORAD ID: 16376
Int'l Code: 1982-055Q
Perigee: 902.9 km
Apogee: 924.3 km
Inclination: 65.8 °
Period: 103.1 minutes
Semi major axis: 7284 km
RCS: 0.0298 m2 (small)
Launch date: June 6, 1982
Source: Commonwealth of Independent States (former USSR) (CIS)
Launch site: PLESETSK MISSILE AND SPACE COMPLEX (PKMTR)

Note: This is SATELLITE DEBRIS
Your satellite tracking list
Your tracking list is empty




NASA's NSSDC Master Catalog

Two Line Element Set (TLE):
1 16376U 82055Q   26014.15291625  .00000484  00000-0  41245-3 0  9992
2 16376  65.8282 340.2259 0014683 161.4019 217.1732 13.96337491 38421
Source of the keplerian elements: AFSPC